Location: Baia Mare
(47.6567°N, 23.5850°E)
Time: 04:31:51
(UTC+03:00)

ISS - Pass Details

Date: 19 May 2018
Orbit: 402 x 407 km, 51.6° (Epoch: 23 May)

Event Time Altitude Azimuth Distance (km) Brightness Sun altitude
Exits shadow 00:24:57 10° 69° (ENE) 1,438 -1.0 -21.4°
Drops below altitude 10° 00:25:00 10° 68° (ENE) 1,459 -0.9 -21.4°
Sets 00:27:05 0° 67° (ENE) 2,320 0.1 -21.5°
